Regional Weather Roundup
Issued by NWS Goodland, KS

Home | Current Version | Previous Version | Graphics & Text | Print | Product List | Glossary On
Versions: 1 2 3 4 5 6 7 8 9 10 11 12 13 14 15 16 17 18 19 20 21 22 23 24 25 26 27 28 29 30 31 32 33 34 35 36 37 38 39 40 41 42 43 44 45 46 47 48 49 50
000
ASUS43 KGLD 050659
RWRGLD

GOODLAND FORECAST AREA HOURLY WEATHER ROUNDUP
NATIONAL WEATHER SERVICE GOODLAND KS
100 AM MDT TUE MAY 05 2015

...OFFICIAL OBSERVATIONS...

CITY           SKY/WX    TMP DP  RH WIND       PRES   REMARKS
GOODLAND KS    CLOUDY    50  48  93 E10       30.08R FOG
HILL CITY KS   LGT RAIN  58  55  90 E5        30.07S FOG
IMPERIAL NEB   CLOUDY    49  47  93 NE3       30.07F FOG
MCCOOK NEB     CLOUDY    53  51  93 NE6       30.07R FOG
AKRON CO       FOG       45  45 100 E7        30.07F VSB 1/4
BURLINGTON CO  CLOUDY    49  46  90 E7        30.07R FOG
LIMON CO       CLOUDY    48  47  96 SE8       30.07F FOG
$$

...UNOFFICIAL OBSERVATIONS...

CITY           SKY/WX    TMP DP  RH WIND       PRES   REMARKS
COLBY KS       MOCLDY    54  54 100 NE5       30.08F FOG
GOVE KS          N/A     57  32  39 MISG        N/A
LENORA KS        N/A     54  32  43 MISG        N/A
NORTON KS      CLOUDY    54  52  94 NE6       30.07R FOG
SHARON SPRINGS   N/A     51  49  94 MISG        N/A
KIT CARSON CO    N/A     49  46  89 MISG        N/A
YUMA CO          N/A     48  46  93 E6          N/A
$$



USA.gov is the U.S. government's official web portal to all federal, state and local government web resources and services.